Year,Month,Day,Hour,Minute,Value (Times are PST for temperature in C)
2016,10,24,00,00,11.30
2016,10,24,00,01,11.30
2016,10,24,00,02,11.30
2016,10,24,00,03,11.30
2016,10,24,00,04,11.30
2016,10,24,00,05,11.30
2016,10,24,00,06,11.30
2016,10,24,00,07,11.20
2016,10,24,00,08,11.20
2016,10,24,00,09,11.20
2016,10,24,00,10,11.20
2016,10,24,00,11,11.20
2016,10,24,00,12,11.20
2016,10,24,00,13,11.20
2016,10,24,00,14,11.20
2016,10,24,00,15,11.20
2016,10,24,00,16,11.20
2016,10,24,00,17,11.20
2016,10,24,00,18,11.20
2016,10,24,00,19,11.20
2016,10,24,00,20,11.20
2016,10,24,00,21,11.20
2016,10,24,00,22,11.20
2016,10,24,00,23,11.20
2016,10,24,00,24,11.20
2016,10,24,00,25,11.20
2016,10,24,00,26,11.10
2016,10,24,00,27,11.10
2016,10,24,00,28,11.10
2016,10,24,00,29,11.10
2016,10,24,00,30,11.10
2016,10,24,00,31,11.10
2016,10,24,00,32,11.10
2016,10,24,00,33,11.10
2016,10,24,00,34,11.10
2016,10,24,00,35,11.10
2016,10,24,00,36,11.10
2016,10,24,00,37,11.10
2016,10,24,00,38,11.10
2016,10,24,00,39,11.10
2016,10,24,00,40,11.10
2016,10,24,00,41,11.10
2016,10,24,00,42,11.10
2016,10,24,00,43,11.10
2016,10,24,00,44,11.10
2016,10,24,00,45,11.10
2016,10,24,00,46,11.10
2016,10,24,00,47,11.10
2016,10,24,00,48,11.00
2016,10,24,00,49,11.00
2016,10,24,00,50,11.00
2016,10,24,00,51,11.00
2016,10,24,00,52,11.00
2016,10,24,00,53,11.00
2016,10,24,00,54,11.00
2016,10,24,00,55,11.00
2016,10,24,00,56,11.00
2016,10,24,00,57,11.00
2016,10,24,00,58,11.00
2016,10,24,00,59,11.00
2016,10,24,01,00,11.00
2016,10,24,01,01,11.00
2016,10,24,01,02,11.00
2016,10,24,01,03,11.00
2016,10,24,01,04,11.00
2016,10,24,01,05,11.00
2016,10,24,01,06,11.00
2016,10,24,01,07,11.00
2016,10,24,01,08,11.00
2016,10,24,01,09,11.00
2016,10,24,01,10,11.00
2016,10,24,01,11,11.00
2016,10,24,01,12,11.00
2016,10,24,01,13,11.00
2016,10,24,01,14,11.00
2016,10,24,01,15,11.00
2016,10,24,01,16,11.00
2016,10,24,01,17,10.90
2016,10,24,01,18,10.90
2016,10,24,01,19,11.00
2016,10,24,01,20,10.90
2016,10,24,01,21,10.90
2016,10,24,01,22,10.90
2016,10,24,01,23,10.90
2016,10,24,01,24,11.00
2016,10,24,01,25,10.90
2016,10,24,01,26,11.00
2016,10,24,01,27,11.00
2016,10,24,01,28,11.00
2016,10,24,01,29,11.00
2016,10,24,01,30,10.90
2016,10,24,01,31,11.00
2016,10,24,01,32,11.00
2016,10,24,01,33,11.00
2016,10,24,01,34,11.00
2016,10,24,01,35,11.00
2016,10,24,01,36,11.00
2016,10,24,01,37,11.00
2016,10,24,01,38,11.00
2016,10,24,01,39,11.00
2016,10,24,01,40,11.00
2016,10,24,01,41,11.00
2016,10,24,01,42,11.00
2016,10,24,01,43,11.00
2016,10,24,01,44,11.00
2016,10,24,01,45,11.00
2016,10,24,01,46,11.00
2016,10,24,01,47,11.00
2016,10,24,01,48,11.00
2016,10,24,01,49,11.00
2016,10,24,01,50,11.00
2016,10,24,01,51,11.00
2016,10,24,01,52,11.00
2016,10,24,01,53,11.00
2016,10,24,01,54,10.90
2016,10,24,01,55,10.90
2016,10,24,01,56,11.00
2016,10,24,01,57,10.90
2016,10,24,01,58,10.90
2016,10,24,01,59,10.90
2016,10,24,02,00,10.90
2016,10,24,02,01,10.90
2016,10,24,02,02,10.90
2016,10,24,02,03,10.90
2016,10,24,02,04,10.90
2016,10,24,02,05,10.90
2016,10,24,02,06,10.90
2016,10,24,02,07,10.90
2016,10,24,02,08,10.90
2016,10,24,02,09,10.90
2016,10,24,02,10,10.90
2016,10,24,02,11,10.90
2016,10,24,02,12,10.90
2016,10,24,02,13,10.90
2016,10,24,02,14,10.90
2016,10,24,02,15,10.90
2016,10,24,02,16,10.90
2016,10,24,02,17,10.90
2016,10,24,02,18,10.90
2016,10,24,02,19,10.90
2016,10,24,02,20,10.90
2016,10,24,02,21,10.90
2016,10,24,02,22,10.90
2016,10,24,02,23,11.00
2016,10,24,02,24,10.90
2016,10,24,02,25,11.00
2016,10,24,02,26,11.00
2016,10,24,02,27,11.00
2016,10,24,02,28,11.00
2016,10,24,02,29,11.00
2016,10,24,02,30,10.90
2016,10,24,02,31,10.90
2016,10,24,02,32,11.00
2016,10,24,02,33,11.00
2016,10,24,02,34,10.90
2016,10,24,02,35,11.00
2016,10,24,02,36,11.00
2016,10,24,02,37,10.90
2016,10,24,02,38,11.00
2016,10,24,02,39,11.00
2016,10,24,02,40,11.00
2016,10,24,02,41,11.00
2016,10,24,02,42,11.00
2016,10,24,02,43,11.00
2016,10,24,02,44,11.00
2016,10,24,02,45,11.00
2016,10,24,02,46,11.00
2016,10,24,02,47,11.00
2016,10,24,02,48,11.00
2016,10,24,02,49,10.90
2016,10,24,02,50,10.90
2016,10,24,02,51,10.90
2016,10,24,02,52,10.90
2016,10,24,02,53,11.00
2016,10,24,02,54,11.00
2016,10,24,02,55,11.00
2016,10,24,02,56,11.00
2016,10,24,02,57,11.00
2016,10,24,02,58,11.00
2016,10,24,02,59,11.00
2016,10,24,03,00,11.00
2016,10,24,03,01,11.00
2016,10,24,03,02,11.00
2016,10,24,03,03,11.00
2016,10,24,03,04,11.00
2016,10,24,03,05,11.00
2016,10,24,03,06,11.00
2016,10,24,03,07,11.00
2016,10,24,03,08,11.00
2016,10,24,03,09,11.10
2016,10,24,03,10,11.10
2016,10,24,03,11,11.10
2016,10,24,03,12,11.10
2016,10,24,03,13,11.10
2016,10,24,03,14,11.10
2016,10,24,03,15,11.10
2016,10,24,03,16,11.10
2016,10,24,03,17,11.10
2016,10,24,03,18,11.10
2016,10,24,03,19,11.10
2016,10,24,03,20,11.10
2016,10,24,03,21,11.10
2016,10,24,03,22,11.10
2016,10,24,03,23,11.10
2016,10,24,03,24,11.20
2016,10,24,03,25,11.20
2016,10,24,03,26,11.20
2016,10,24,03,27,11.20
2016,10,24,03,28,11.20
2016,10,24,03,29,11.20
2016,10,24,03,30,11.20
2016,10,24,03,31,11.20
2016,10,24,03,32,11.30
2016,10,24,03,33,11.30
2016,10,24,03,34,11.30
2016,10,24,03,35,11.30
2016,10,24,03,36,11.30
2016,10,24,03,37,11.30
2016,10,24,03,38,11.30
2016,10,24,03,39,11.30
2016,10,24,03,40,11.30
2016,10,24,03,41,11.30
2016,10,24,03,42,11.30
2016,10,24,03,43,11.30
2016,10,24,03,44,11.30
2016,10,24,03,45,11.30
2016,10,24,03,46,11.30
2016,10,24,03,47,11.30
2016,10,24,03,48,11.30
2016,10,24,03,49,11.30
2016,10,24,03,50,11.30
2016,10,24,03,51,11.30
2016,10,24,03,52,11.30
2016,10,24,03,53,11.30
2016,10,24,03,54,11.30
2016,10,24,03,55,11.30
2016,10,24,03,56,11.30
2016,10,24,03,57,11.30
2016,10,24,03,58,11.30
2016,10,24,03,59,11.30
2016,10,24,04,00,11.30
2016,10,24,04,01,11.30
2016,10,24,04,02,11.30
2016,10,24,04,03,11.30
2016,10,24,04,04,11.30
2016,10,24,04,05,11.30
2016,10,24,04,06,11.40
2016,10,24,04,07,11.40
2016,10,24,04,08,11.40
2016,10,24,04,09,11.40
2016,10,24,04,10,11.40
2016,10,24,04,11,11.40
2016,10,24,04,12,11.40
2016,10,24,04,13,11.40
2016,10,24,04,14,11.40
2016,10,24,04,15,11.40
2016,10,24,04,16,11.40
2016,10,24,04,17,11.40
2016,10,24,04,18,11.40
2016,10,24,04,19,11.40
2016,10,24,04,20,11.40
2016,10,24,04,21,11.40
2016,10,24,04,22,11.40
2016,10,24,04,23,11.40
2016,10,24,04,24,11.40
2016,10,24,04,25,11.40
2016,10,24,04,26,11.40
2016,10,24,04,27,11.40
2016,10,24,04,28,11.40
2016,10,24,04,29,11.50
2016,10,24,04,30,11.40
2016,10,24,04,31,11.50
2016,10,24,04,32,11.50
2016,10,24,04,33,11.50
2016,10,24,04,34,11.50
2016,10,24,04,35,11.50
2016,10,24,04,36,11.50
2016,10,24,04,37,11.50
2016,10,24,04,38,11.50
2016,10,24,04,39,11.50
2016,10,24,04,40,11.50
2016,10,24,04,41,11.50
2016,10,24,04,42,11.50
2016,10,24,04,43,11.50
2016,10,24,04,44,11.50
2016,10,24,04,45,11.50
2016,10,24,04,46,11.50
2016,10,24,04,47,11.50
2016,10,24,04,48,11.50
2016,10,24,04,49,11.50
2016,10,24,04,50,11.50
2016,10,24,04,51,11.50
2016,10,24,04,52,11.50
2016,10,24,04,53,11.50
2016,10,24,04,54,11.50
2016,10,24,04,55,11.50
2016,10,24,04,56,11.50
2016,10,24,04,57,11.50
2016,10,24,04,58,11.50
2016,10,24,04,59,11.50
2016,10,24,05,00,11.50
2016,10,24,05,01,11.50
2016,10,24,05,02,11.50
2016,10,24,05,03,11.50
2016,10,24,05,04,11.50
2016,10,24,05,05,11.50
2016,10,24,05,06,11.50
2016,10,24,05,07,11.50
2016,10,24,05,08,11.50
2016,10,24,05,09,11.50
2016,10,24,05,10,11.50
2016,10,24,05,11,11.50
2016,10,24,05,12,11.50
2016,10,24,05,13,11.50
2016,10,24,05,14,11.50
2016,10,24,05,15,11.50
2016,10,24,05,16,11.50
2016,10,24,05,17,11.50
2016,10,24,05,18,11.60
2016,10,24,05,19,11.50
2016,10,24,05,20,11.60
2016,10,24,05,21,11.60
2016,10,24,05,22,11.60
2016,10,24,05,23,11.60
2016,10,24,05,24,11.60
2016,10,24,05,25,11.50
2016,10,24,05,26,11.50
2016,10,24,05,27,11.50
2016,10,24,05,28,11.60
2016,10,24,05,29,11.50
2016,10,24,05,30,11.50
2016,10,24,05,31,11.50
2016,10,24,05,32,11.50
2016,10,24,05,33,11.50
2016,10,24,05,34,11.50
2016,10,24,05,35,11.50
2016,10,24,05,36,11.50
2016,10,24,05,37,11.40
2016,10,24,05,38,11.40
2016,10,24,05,39,11.40
2016,10,24,05,40,11.40
2016,10,24,05,41,11.40
2016,10,24,05,42,11.40
2016,10,24,05,43,11.40
2016,10,24,05,44,11.40
2016,10,24,05,45,11.40
2016,10,24,05,46,11.40
2016,10,24,05,47,11.30
2016,10,24,05,48,11.30
2016,10,24,05,49,11.30
2016,10,24,05,50,11.30
2016,10,24,05,51,11.30
2016,10,24,05,52,11.30
2016,10,24,05,53,11.30
2016,10,24,05,54,11.30
2016,10,24,05,55,11.30
2016,10,24,05,56,11.30
2016,10,24,05,57,11.30
2016,10,24,05,58,11.30
2016,10,24,05,59,11.30
2016,10,24,06,00,11.30
2016,10,24,06,01,11.30
2016,10,24,06,02,11.30
2016,10,24,06,03,11.30
2016,10,24,06,04,11.30
2016,10,24,06,05,11.30
2016,10,24,06,06,11.30
2016,10,24,06,07,11.30
2016,10,24,06,08,11.30
2016,10,24,06,09,11.30
2016,10,24,06,10,11.20
2016,10,24,06,11,11.20
2016,10,24,06,12,11.20
2016,10,24,06,13,11.20
2016,10,24,06,14,11.20
2016,10,24,06,15,11.20
2016,10,24,06,16,11.20
2016,10,24,06,17,11.20
2016,10,24,06,18,11.20
2016,10,24,06,19,11.20
2016,10,24,06,20,11.20
2016,10,24,06,21,11.20
2016,10,24,06,22,11.20
2016,10,24,06,23,11.30
2016,10,24,06,24,11.30
2016,10,24,06,25,11.30
2016,10,24,06,26,11.30
2016,10,24,06,27,11.30
2016,10,24,06,28,11.30
2016,10,24,06,29,11.30
2016,10,24,06,30,11.30
2016,10,24,06,31,11.30
2016,10,24,06,32,11.30
2016,10,24,06,33,11.30
2016,10,24,06,34,11.30
2016,10,24,06,35,11.30
2016,10,24,06,36,11.30
2016,10,24,06,37,11.30
2016,10,24,06,38,11.30
2016,10,24,06,39,11.30
2016,10,24,06,40,11.30
2016,10,24,06,41,11.30
2016,10,24,06,42,11.30
2016,10,24,06,43,11.30
2016,10,24,06,44,11.30
2016,10,24,06,45,11.30
2016,10,24,06,46,11.30
2016,10,24,06,47,11.40
2016,10,24,06,48,11.30
2016,10,24,06,49,11.40
2016,10,24,06,50,11.40
2016,10,24,06,51,11.30
2016,10,24,06,52,11.30
2016,10,24,06,53,11.30
2016,10,24,06,54,11.40
2016,10,24,06,55,11.30
2016,10,24,06,56,11.40
2016,10,24,06,57,11.40
2016,10,24,06,58,11.30
2016,10,24,06,59,11.30
2016,10,24,07,00,11.30
2016,10,24,07,01,11.30
2016,10,24,07,02,11.30
2016,10,24,07,03,11.30
2016,10,24,07,04,11.40
2016,10,24,07,05,11.30
2016,10,24,07,06,11.30
2016,10,24,07,07,11.30
2016,10,24,07,08,11.30
2016,10,24,07,09,11.30
2016,10,24,07,10,11.30
2016,10,24,07,11,11.30
2016,10,24,07,12,11.30
2016,10,24,07,13,11.30
2016,10,24,07,14,11.30
2016,10,24,07,15,11.30
2016,10,24,07,16,11.30
2016,10,24,07,17,11.40
2016,10,24,07,18,11.40
2016,10,24,07,19,11.40
2016,10,24,07,20,11.40
2016,10,24,07,21,11.40
2016,10,24,07,22,11.40
2016,10,24,07,23,11.40
2016,10,24,07,24,11.40
2016,10,24,07,25,11.40
2016,10,24,07,26,11.40
2016,10,24,07,27,11.40
2016,10,24,07,28,11.40
2016,10,24,07,29,11.40
2016,10,24,07,30,11.40
2016,10,24,07,31,11.40
2016,10,24,07,32,11.40
2016,10,24,07,33,11.40
2016,10,24,07,34,11.40
2016,10,24,07,35,11.40
2016,10,24,07,36,11.40
2016,10,24,07,37,11.40
2016,10,24,07,38,11.40
2016,10,24,07,39,11.40
2016,10,24,07,40,11.40
2016,10,24,07,41,11.40
2016,10,24,07,42,11.40
2016,10,24,07,43,11.30
2016,10,24,07,44,11.30
2016,10,24,07,45,11.30
2016,10,24,07,46,11.30
2016,10,24,07,47,11.30
2016,10,24,07,48,11.30
2016,10,24,07,49,11.30
2016,10,24,07,50,11.30
2016,10,24,07,51,11.30
2016,10,24,07,52,11.30
2016,10,24,07,53,11.30
2016,10,24,07,54,11.30
2016,10,24,07,55,11.30
2016,10,24,07,56,11.30
2016,10,24,07,57,11.30
2016,10,24,07,58,11.30
2016,10,24,07,59,11.30
2016,10,24,08,00,11.30
2016,10,24,08,01,11.30
2016,10,24,08,02,11.30
2016,10,24,08,03,11.30
2016,10,24,08,04,11.30
2016,10,24,08,05,11.30
2016,10,24,08,06,11.30
2016,10,24,08,07,11.30
2016,10,24,08,08,11.30
2016,10,24,08,09,11.30
2016,10,24,08,10,11.30
2016,10,24,08,11,11.30
2016,10,24,08,12,11.20
2016,10,24,08,13,11.20
2016,10,24,08,14,11.20
2016,10,24,08,15,11.20
2016,10,24,08,16,11.20
2016,10,24,08,17,11.20
2016,10,24,08,18,11.20
2016,10,24,08,19,11.20
2016,10,24,08,20,11.20
2016,10,24,08,21,11.20
2016,10,24,08,22,11.20
2016,10,24,08,23,11.20
2016,10,24,08,24,11.20
2016,10,24,08,25,11.20
2016,10,24,08,26,11.20
2016,10,24,08,27,11.20
2016,10,24,08,28,11.20
2016,10,24,08,29,11.20
2016,10,24,08,30,11.20
2016,10,24,08,31,11.20
2016,10,24,08,32,11.30
2016,10,24,08,33,11.30
2016,10,24,08,34,11.30
2016,10,24,08,35,11.30
2016,10,24,08,36,11.30
2016,10,24,08,37,11.30
2016,10,24,08,38,11.30
2016,10,24,08,39,11.30
2016,10,24,08,40,11.30
2016,10,24,08,41,11.30
2016,10,24,08,42,11.30
2016,10,24,08,43,11.30
2016,10,24,08,44,11.30
2016,10,24,08,45,11.40
2016,10,24,08,46,11.40
2016,10,24,08,47,11.40
2016,10,24,08,48,11.40
2016,10,24,08,49,11.40
2016,10,24,08,50,11.40
2016,10,24,08,51,11.40
2016,10,24,08,52,11.40
2016,10,24,08,53,11.40
2016,10,24,08,54,11.40
2016,10,24,08,55,11.50
2016,10,24,08,56,11.50
2016,10,24,08,57,11.50
2016,10,24,08,58,11.50
2016,10,24,08,59,11.50
2016,10,24,09,00,11.60
2016,10,24,09,01,11.60
2016,10,24,09,02,11.60
2016,10,24,09,03,11.60
2016,10,24,09,04,11.60
2016,10,24,09,05,11.60
2016,10,24,09,06,11.60
2016,10,24,09,07,11.60
2016,10,24,09,08,11.60
2016,10,24,09,09,11.70
2016,10,24,09,10,11.70
2016,10,24,09,11,11.70
2016,10,24,09,12,11.70
2016,10,24,09,13,11.70
2016,10,24,09,14,11.70
2016,10,24,09,15,11.70
2016,10,24,09,16,11.70
2016,10,24,09,17,11.70
2016,10,24,09,18,11.70
2016,10,24,09,19,11.70
2016,10,24,09,20,11.70
2016,10,24,09,21,11.70
2016,10,24,09,22,11.70
2016,10,24,09,23,11.70
2016,10,24,09,24,11.70
2016,10,24,09,25,11.70
2016,10,24,09,26,11.70
2016,10,24,09,27,11.70
2016,10,24,09,28,11.70
2016,10,24,09,29,11.80
2016,10,24,09,30,11.70
2016,10,24,09,31,11.70
2016,10,24,09,32,11.70
2016,10,24,09,33,11.70
2016,10,24,09,34,11.80
2016,10,24,09,35,11.80
2016,10,24,09,36,11.80
2016,10,24,09,37,11.80
2016,10,24,09,38,11.80
2016,10,24,09,39,11.80
2016,10,24,09,40,11.80
2016,10,24,09,41,11.80
2016,10,24,09,42,11.80
2016,10,24,09,43,11.80
2016,10,24,09,44,11.80
2016,10,24,09,45,11.80
2016,10,24,09,46,11.80
2016,10,24,09,47,11.80
2016,10,24,09,48,11.80
2016,10,24,09,49,11.80
2016,10,24,09,50,11.80
2016,10,24,09,51,11.80
2016,10,24,09,52,11.80
2016,10,24,09,53,11.80
2016,10,24,09,54,11.80
2016,10,24,09,55,11.80
2016,10,24,09,56,11.80
2016,10,24,09,57,11.80
2016,10,24,09,58,11.80
2016,10,24,09,59,11.80
2016,10,24,10,00,11.80
2016,10,24,10,01,11.80
2016,10,24,10,02,11.80
2016,10,24,10,03,11.80
2016,10,24,10,04,11.80
2016,10,24,10,05,11.90
2016,10,24,10,06,11.90
2016,10,24,10,07,11.90
2016,10,24,10,08,11.90
2016,10,24,10,09,11.90
2016,10,24,10,10,11.90
2016,10,24,10,11,11.90
2016,10,24,10,12,11.90
2016,10,24,10,13,11.90
2016,10,24,10,14,11.90
2016,10,24,10,15,11.90
2016,10,24,10,16,12.00
2016,10,24,10,17,12.00
2016,10,24,10,18,12.00
2016,10,24,10,19,12.00
2016,10,24,10,20,12.00
2016,10,24,10,21,12.00
2016,10,24,10,22,12.00
2016,10,24,10,23,12.00
2016,10,24,10,24,12.00
2016,10,24,10,25,12.00
2016,10,24,10,26,12.10
2016,10,24,10,27,12.10
2016,10,24,10,28,12.10
2016,10,24,10,29,12.10
2016,10,24,10,30,12.10
2016,10,24,10,31,12.10
2016,10,24,10,32,12.10
2016,10,24,10,33,12.10
2016,10,24,10,34,12.10
2016,10,24,10,35,12.10
2016,10,24,10,36,12.10
2016,10,24,10,37,12.10
2016,10,24,10,38,12.10
2016,10,24,10,39,12.10
2016,10,24,10,40,12.10
2016,10,24,10,41,12.10
2016,10,24,10,42,12.10
2016,10,24,10,43,12.10
2016,10,24,10,44,12.10
2016,10,24,10,45,12.10
2016,10,24,10,46,12.10
2016,10,24,10,47,12.10
2016,10,24,10,48,12.10
2016,10,24,10,49,12.10
2016,10,24,10,50,12.10
2016,10,24,10,51,12.10
2016,10,24,10,52,12.10
2016,10,24,10,53,12.10
2016,10,24,10,54,12.10
2016,10,24,10,55,12.10
2016,10,24,10,56,12.10
2016,10,24,10,57,12.10
2016,10,24,10,58,12.10
2016,10,24,10,59,12.10
2016,10,24,11,00,12.10
2016,10,24,11,01,12.10
2016,10,24,11,02,12.10
2016,10,24,11,03,12.10
2016,10,24,11,04,12.10
2016,10,24,11,05,12.10
2016,10,24,11,06,12.10
2016,10,24,11,07,12.10
2016,10,24,11,08,12.10
2016,10,24,11,09,12.10
2016,10,24,11,10,12.10
2016,10,24,11,11,12.10
2016,10,24,11,12,12.10
2016,10,24,11,13,12.10
2016,10,24,11,14,12.10
2016,10,24,11,15,12.10
2016,10,24,11,16,12.10
2016,10,24,11,17,12.10
2016,10,24,11,18,12.10
2016,10,24,11,19,12.10
2016,10,24,11,20,12.10
2016,10,24,11,21,12.10
2016,10,24,11,22,12.10
2016,10,24,11,23,12.20
2016,10,24,11,24,12.20
2016,10,24,11,25,12.20
2016,10,24,11,26,12.20
2016,10,24,11,27,12.20
2016,10,24,11,28,12.20
2016,10,24,11,29,12.20
2016,10,24,11,30,12.20
2016,10,24,11,31,12.20
2016,10,24,11,32,12.20
2016,10,24,11,33,12.20
2016,10,24,11,34,12.20
2016,10,24,11,35,12.20
2016,10,24,11,36,12.20
2016,10,24,11,37,12.20
2016,10,24,11,38,12.20
2016,10,24,11,39,12.20
2016,10,24,11,40,12.20
2016,10,24,11,41,12.20
2016,10,24,11,42,12.20
2016,10,24,11,43,12.20
2016,10,24,11,44,12.20
2016,10,24,11,45,12.20
2016,10,24,11,46,12.20
2016,10,24,11,47,12.20
2016,10,24,11,48,12.20
2016,10,24,11,49,12.30
2016,10,24,11,50,12.30
2016,10,24,11,51,12.30
2016,10,24,11,52,12.30
2016,10,24,11,53,12.30
2016,10,24,11,54,12.30
2016,10,24,11,55,12.30
2016,10,24,11,56,12.30
2016,10,24,11,57,12.30
2016,10,24,11,58,12.30
2016,10,24,11,59,12.30
2016,10,24,12,00,12.30
2016,10,24,12,01,12.30
2016,10,24,12,02,12.40
2016,10,24,12,03,12.40
2016,10,24,12,04,12.40
2016,10,24,12,05,12.40
2016,10,24,12,06,12.40
2016,10,24,12,07,12.50
2016,10,24,12,08,12.50
2016,10,24,12,09,12.50
2016,10,24,12,10,12.50
2016,10,24,12,11,12.60
2016,10,24,12,12,12.60
2016,10,24,12,13,12.60
2016,10,24,12,14,12.60
2016,10,24,12,15,12.70
2016,10,24,12,16,12.70
2016,10,24,12,17,12.70
2016,10,24,12,18,12.70
2016,10,24,12,19,12.80
2016,10,24,12,20,12.80
2016,10,24,12,21,12.80
2016,10,24,12,22,12.90
2016,10,24,12,23,12.90
2016,10,24,12,24,12.90
2016,10,24,12,25,13.00
2016,10,24,12,26,13.00
2016,10,24,12,27,13.10
2016,10,24,12,28,13.10
2016,10,24,12,29,13.20
2016,10,24,12,30,13.20
2016,10,24,12,31,13.20
2016,10,24,12,32,13.30
2016,10,24,12,33,13.30
2016,10,24,12,34,13.30
2016,10,24,12,35,13.30
2016,10,24,12,36,13.40
2016,10,24,12,37,13.40
2016,10,24,12,38,13.40
2016,10,24,12,39,13.50
2016,10,24,12,40,13.50
2016,10,24,12,41,13.50
2016,10,24,12,42,13.50
2016,10,24,12,43,13.60
2016,10,24,12,44,13.60
2016,10,24,12,45,13.60
2016,10,24,12,46,13.60
2016,10,24,12,47,13.60
2016,10,24,12,48,13.60
2016,10,24,12,49,13.60
2016,10,24,12,50,13.60
2016,10,24,12,51,13.60
2016,10,24,12,52,13.60
2016,10,24,12,53,13.60
2016,10,24,12,54,13.60
2016,10,24,12,55,13.60
2016,10,24,12,56,13.60
2016,10,24,12,57,13.60
2016,10,24,12,58,13.60
2016,10,24,12,59,13.60
2016,10,24,13,00,13.60
2016,10,24,13,01,13.60
2016,10,24,13,02,13.70
2016,10,24,13,03,13.70
2016,10,24,13,04,13.70
2016,10,24,13,05,13.70
2016,10,24,13,06,13.70
2016,10,24,13,07,13.70
2016,10,24,13,08,13.70
2016,10,24,13,09,13.70
2016,10,24,13,10,13.70
2016,10,24,13,11,13.70
2016,10,24,13,12,13.70
2016,10,24,13,13,13.70
2016,10,24,13,14,13.70
2016,10,24,13,15,13.70
2016,10,24,13,16,13.70
2016,10,24,13,17,13.80
2016,10,24,13,18,13.80
2016,10,24,13,19,13.80
2016,10,24,13,20,13.80
2016,10,24,13,21,13.80
2016,10,24,13,22,13.80
2016,10,24,13,23,13.80
2016,10,24,13,24,13.80
2016,10,24,13,25,13.80
2016,10,24,13,26,13.80
2016,10,24,13,27,13.80
2016,10,24,13,28,13.80
2016,10,24,13,29,13.80
2016,10,24,13,30,13.80
2016,10,24,13,31,13.80
2016,10,24,13,32,13.80
2016,10,24,13,33,13.80
2016,10,24,13,34,13.80
2016,10,24,13,35,13.80
2016,10,24,13,36,13.80
2016,10,24,13,37,13.80
2016,10,24,13,38,13.80
2016,10,24,13,39,13.80
2016,10,24,13,40,13.80
2016,10,24,13,41,13.80
2016,10,24,13,42,13.80
2016,10,24,13,43,13.80
2016,10,24,13,44,13.80
2016,10,24,13,45,13.80
2016,10,24,13,46,13.80
2016,10,24,13,47,13.80
2016,10,24,13,48,13.80
2016,10,24,13,49,13.80
2016,10,24,13,50,13.80
2016,10,24,13,51,13.80
2016,10,24,13,52,13.80
2016,10,24,13,53,13.80
2016,10,24,13,54,13.80
2016,10,24,13,55,13.80
2016,10,24,13,56,13.80
2016,10,24,13,57,13.80
2016,10,24,13,58,13.80
2016,10,24,13,59,13.80
2016,10,24,14,00,13.80
2016,10,24,14,01,13.80
2016,10,24,14,02,13.80
2016,10,24,14,03,13.80
2016,10,24,14,04,13.80
2016,10,24,14,05,13.80
2016,10,24,14,06,13.70
2016,10,24,14,07,13.70
2016,10,24,14,08,13.70
2016,10,24,14,09,13.70
2016,10,24,14,10,13.70
2016,10,24,14,11,13.70
2016,10,24,14,12,13.70
2016,10,24,14,13,13.70
2016,10,24,14,14,13.70
2016,10,24,14,15,13.70
2016,10,24,14,16,13.70
2016,10,24,14,17,13.70
2016,10,24,14,18,13.70
2016,10,24,14,19,13.70
2016,10,24,14,20,13.70
2016,10,24,14,21,13.70
2016,10,24,14,22,13.70
2016,10,24,14,23,13.70
2016,10,24,14,24,13.70
2016,10,24,14,25,13.60
2016,10,24,14,26,13.70
2016,10,24,14,27,13.60
2016,10,24,14,28,13.60
2016,10,24,14,29,13.60
2016,10,24,14,30,13.60
2016,10,24,14,31,13.60
2016,10,24,14,32,13.60
2016,10,24,14,33,13.60
2016,10,24,14,34,13.60
2016,10,24,14,35,13.60
2016,10,24,14,36,13.60
2016,10,24,14,37,13.60
2016,10,24,14,38,13.60
2016,10,24,14,39,13.60
2016,10,24,14,40,13.60
2016,10,24,14,41,13.60
2016,10,24,14,42,13.60
2016,10,24,14,43,13.60
2016,10,24,14,44,13.60
2016,10,24,14,45,13.60
2016,10,24,14,46,13.60
2016,10,24,14,47,13.60
2016,10,24,14,48,13.60
2016,10,24,14,49,13.60
2016,10,24,14,50,13.60
2016,10,24,14,51,13.60
2016,10,24,14,52,13.60
2016,10,24,14,53,13.60
2016,10,24,14,54,13.60
2016,10,24,14,55,13.60
2016,10,24,14,56,13.60
2016,10,24,14,57,13.60
2016,10,24,14,58,13.60
2016,10,24,14,59,13.60
2016,10,24,15,00,13.60
2016,10,24,15,01,13.60
2016,10,24,15,02,13.60
2016,10,24,15,03,13.60
2016,10,24,15,04,13.60
2016,10,24,15,05,13.60
2016,10,24,15,06,13.60
2016,10,24,15,07,13.60
2016,10,24,15,08,13.60
2016,10,24,15,09,13.60
2016,10,24,15,10,13.60
2016,10,24,15,11,13.50
2016,10,24,15,12,13.50
2016,10,24,15,13,13.50
2016,10,24,15,14,13.40
2016,10,24,15,15,13.40
2016,10,24,15,16,13.40
2016,10,24,15,17,13.30
2016,10,24,15,18,13.30
2016,10,24,15,19,13.30
2016,10,24,15,20,13.20
2016,10,24,15,21,13.20
2016,10,24,15,22,13.10
2016,10,24,15,23,13.10
2016,10,24,15,24,13.10
2016,10,24,15,25,13.00
2016,10,24,15,26,13.00
2016,10,24,15,27,12.90
2016,10,24,15,28,12.80
2016,10,24,15,29,12.80
2016,10,24,15,30,12.70
2016,10,24,15,31,12.70
2016,10,24,15,32,12.70
2016,10,24,15,33,12.70
2016,10,24,15,34,12.60
2016,10,24,15,35,12.60
2016,10,24,15,36,12.60
2016,10,24,15,37,12.60
2016,10,24,15,38,12.60
2016,10,24,15,39,12.60
2016,10,24,15,40,12.60
2016,10,24,15,41,12.60
2016,10,24,15,42,12.50
2016,10,24,15,43,12.50
2016,10,24,15,44,12.50
2016,10,24,15,45,12.50
2016,10,24,15,46,12.50
2016,10,24,15,47,12.50
2016,10,24,15,48,12.50
2016,10,24,15,49,12.50
2016,10,24,15,50,12.40
2016,10,24,15,51,12.40
2016,10,24,15,52,12.40
2016,10,24,15,53,12.40
2016,10,24,15,54,12.40
2016,10,24,15,55,12.40
2016,10,24,15,56,12.40
2016,10,24,15,57,12.40
2016,10,24,15,58,12.40
2016,10,24,15,59,12.40
2016,10,24,16,00,12.40
2016,10,24,16,01,12.40
2016,10,24,16,02,12.40
2016,10,24,16,03,12.40
2016,10,24,16,04,12.40
2016,10,24,16,05,12.40
2016,10,24,16,06,12.40
2016,10,24,16,07,12.30
2016,10,24,16,08,12.30
2016,10,24,16,09,12.30
2016,10,24,16,10,12.30
2016,10,24,16,11,12.30
2016,10,24,16,12,12.30
2016,10,24,16,13,12.30
2016,10,24,16,14,12.30
2016,10,24,16,15,12.20
2016,10,24,16,16,12.20
2016,10,24,16,17,12.20
2016,10,24,16,18,12.20
2016,10,24,16,19,12.20
2016,10,24,16,20,12.20
2016,10,24,16,21,12.20
2016,10,24,16,22,12.20
2016,10,24,16,23,12.10
2016,10,24,16,24,12.10
2016,10,24,16,25,12.10
2016,10,24,16,26,12.10
2016,10,24,16,27,12.10
2016,10,24,16,28,12.10
2016,10,24,16,29,12.10
2016,10,24,16,30,12.00
2016,10,24,16,31,12.00
2016,10,24,16,32,12.00
2016,10,24,16,33,11.90
2016,10,24,16,34,11.90
2016,10,24,16,35,11.90
2016,10,24,16,36,11.90
2016,10,24,16,37,11.90
2016,10,24,16,38,11.90
2016,10,24,16,39,11.80
2016,10,24,16,40,11.80
2016,10,24,16,41,11.80
2016,10,24,16,42,11.80
2016,10,24,16,43,11.80
2016,10,24,16,44,11.80
2016,10,24,16,45,11.80
2016,10,24,16,46,11.80
2016,10,24,16,47,11.80
2016,10,24,16,48,11.70
2016,10,24,16,49,11.70
2016,10,24,16,50,11.70
2016,10,24,16,51,11.70
2016,10,24,16,52,11.70
2016,10,24,16,53,11.70
2016,10,24,16,54,11.70
2016,10,24,16,55,11.70
2016,10,24,16,56,11.70
2016,10,24,16,57,11.80
2016,10,24,16,58,11.80
2016,10,24,16,59,11.80
2016,10,24,17,00,11.80
2016,10,24,17,01,11.80
2016,10,24,17,02,11.80
2016,10,24,17,03,11.80
2016,10,24,17,04,11.80
2016,10,24,17,05,11.80
2016,10,24,17,06,11.80
2016,10,24,17,07,11.80
2016,10,24,17,08,11.70
2016,10,24,17,09,11.70
2016,10,24,17,10,11.70
2016,10,24,17,11,11.70
2016,10,24,17,12,11.70
2016,10,24,17,13,11.70
2016,10,24,17,14,11.70
2016,10,24,17,15,11.70
2016,10,24,17,16,11.60
2016,10,24,17,17,11.60
2016,10,24,17,18,11.60
2016,10,24,17,19,11.60